Location: Martinetto
(44.3833°N, 8.3500°E)
Time: 01:15:50
(UTC+00:00)

Daily predictions for brighter satellites

Satellite Brightness Start Highest point End
(mag) Time Altitude Azimuth Time Altitude Azimuth Time Altitude Azimuth
ATLAS CENTAUR R/B 4.3 00:03:43 10° N 00:05:21 15° NE 00:07:39 10° ENE
Nadezhda 2 Rocket 4.4 00:04:33 49° SSE 00:06:14 74° E 00:12:20 10° NNE
GEOS 3 Rocket 3.6 00:07:39 38° SE 00:09:43 79° NE 00:15:01 10° NW
Cosmos 1726 3.8 00:08:36 10° NNW 00:10:54 25° WNW 00:10:54 25° WNW
COSMOS 2455 2.8 00:11:39 53° SSW 00:13:07 79° ESE 00:19:10 10° NNE
Cosmos 2058 Rocket 3.4 00:08:47 10° N 00:13:08 57° E 00:13:46 51° ESE
Meteor 1-29 3.6 00:10:52 10° NNE 00:13:32 52° NNE 00:13:32 52° NNE
Cosmos 2228 3.0 00:11:25 10° NNW 00:15:32 69° W 00:15:32 69° W
SJ 16-02 4.2 00:14:17 10° NNE 00:16:27 13° NE 00:18:36 10° E
SL-14 R/B 3.7 00:18:39 53° E 00:18:39 53° E 00:22:18 10° NNE
IRAS Rocket 4.3 00:17:53 43° SSE 00:19:47 78° ENE 00:25:22 10° NNW
Cosmos 1953 4.1 00:16:56 10° NW 00:19:26 21° WNW 00:19:26 21° WNW
Cosmos 1340 Rocket 4.2 00:18:15 10° NNW 00:21:08 28° WNW 00:21:08 28° WNW
Okean 1-7 Rocket 3.5 00:22:03 69° SE 00:22:26 75° E 00:26:56 10° NNE
Cosmos 1174 4.1 00:23:33 50° NNE 00:23:33 50° NNE 00:26:19 10° NNE
Cosmos 921 Rocket 3.7 00:23:34 40° ESE 00:23:48 40° ESE 00:27:50 10° NNE
Cosmos 1300 3.2 00:21:09 10° N 00:24:53 51° ENE 00:25:04 51° E
BREEZE M DEB (TANK) 4.0 00:26:49 26° NE 00:26:49 26° NE 00:28:53 10° E
COSMOS 2487 3.7 00:25:07 10° NNW 00:27:18 33° NW 00:27:18 33° NW
Cosmos 1626 2.1 00:34:31 78° NNE 00:34:31 78° NNE 00:38:01 10° N
STARLINK-60 4.0 00:36:27 45° NE 00:36:27 45° NE 00:38:49 10° NE
Cosmos 1606 Rocket 4.3 00:34:57 10° NNW 00:38:48 37° W 00:38:48 37° W
FALCON 9 R/B 3.4 00:38:25 38° SSW 00:40:35 46° SSE 00:58:52 10° E
Nadezhda 1 Rocket 4.2 00:36:24 10° N 00:42:31 65° E 00:45:52 28° SSE
MOZ.5/SAFIR/RUBIN 5/SL-8 3.9 00:44:16 40° SE 00:45:48 68° ENE 00:50:25 10° N
UNK 4.4 00:44:01 28° SE 00:46:08 51° ENE 00:50:36 10° N
Cosmos 220 Rocket 4.3 00:46:16 49° SE 00:46:56 54° ESE 00:51:16 10° NNE
Cosmos 2297 Rocket 3.6 00:43:52 10° NNW 00:49:07 37° NE 00:54:20 10° ESE
SL-4 R/B 2.4 00:49:12 45° WSW 00:50:41 79° NNW 00:55:26 10° ENE
Cosmos 1437 3.3 00:52:48 52° NNE 00:52:48 52° NNE 00:55:10 10° NNE
CZ-4B R/B 4.4 00:48:11 10° NNE 00:53:03 41° E 00:55:16 27° SSE
NOSS 5 (C) 4.4 00:50:16 10° NW 00:53:30 84° WSW 00:53:30 84° WSW
ATLAS CENTAUR R/B 2.0 00:56:56 40° W 00:57:59 49° NW 01:02:03 10° NNE
SL-19 R/B 4.4 00:52:46 10° N 00:58:05 62° WNW 01:00:03 39° SW
SL-16 R/B 2.6 00:56:01 25° SSE 00:59:50 79° ENE 01:06:02 10° NNW
Cosmos 1777 Rocket 4.1 00:55:37 10° NNW 01:00:43 55° WSW 01:01:53 45° SSW
NOSS 3-4 (A) 4.3 00:57:31 22° WSW 01:01:07 43° NW 01:07:12 10° NNE
Timation 2 Rocket 3.8 00:54:48 10° NNW 01:01:10 77° WSW 01:04:30 29° SSE
NOSS 3-4 (C) 4.3 00:57:38 22° WSW 01:01:12 44° NW 01:07:18 10° NNE
FALCON 9 DEB 3.6 01:02:08 50° ESE 01:02:08 50° ESE 01:05:04 10° ENE
BREEZE-M R/B 2.9 01:01:07 56° SSW 01:01:47 66° SSE 01:04:56 10° ENE
Cosmos 1602 Rocket 3.7 01:01:58 45° SSE 01:03:05 65° E 01:07:23 10° NNE
OE (NEXTSAT) 4.3 01:03:39 72° ESE 01:03:39 72° ESE 01:06:52 10° ENE
STARLINK-29 3.1 01:04:34 70° NE 01:04:34 70° NE 01:07:27 10° NE
Cosmos 1455 3.7 01:03:53 10° N 01:07:16 31° ENE 01:09:23 18° SE
BREEZE-M DEB (TANK) 4.3 01:09:30 15° E 01:09:30 15° E 01:10:01 10° E
ATLAS 3B R/B 2.7 01:01:41 10° NW 01:08:23 60° WSW 01:12:43 24° S
CENTAUR R/B 3.9 01:04:54 10° NW 01:12:08 34° WSW 01:14:47 29° SW
STARLINK-1378 4.4 01:12:32 30° SE 01:12:32 30° SE 01:15:21 10° ENE
STARLINK-1329 4.4 01:12:59 30° SE 01:12:59 30° SE 01:15:51 10° ENE
BREEZE-M DEB (TANK) 2.4 01:12:38 36° NW 01:12:58 38° NNW 01:15:09 10° NE
STARLINK-1365 4.3 01:13:46 32° SE 01:13:46 32° SE 01:16:42 10° ENE
GP-B 4.2 01:09:25 10° NNE 01:13:38 40° E 01:16:10 21° SE
STARLINK-1379 4.3 01:14:39 31° SE 01:14:39 31° SE 01:17:35 10° ENE
Meteor 2-1 Rocket 4.2 01:09:12 10° N 01:14:44 80° E 01:18:03 25° SSE
STARLINK-1362 4.3 01:15:10 32° SE 01:15:10 32° SE 01:18:09 10° ENE
Cosmos 1745 Rocket 3.9 01:12:45 35° SSW 01:15:29 73° W 01:21:38 10° N
Cosmos 1867 4.3 01:11:48 10° NW 01:16:34 31° WSW 01:16:44 31° WSW
STARLINK-1373 4.2 01:17:22 33° SE 01:17:22 33° SE 01:20:28 10° ENE
STARLINK-1390 4.1 01:19:27 35° SE 01:19:27 35° SE 01:22:39 10° ENE
RESURS DK-1 2.9 01:19:17 38° WSW 01:20:20 48° WNW 01:24:22 10° NNE
EP 2 4.4 01:21:04 86° NNW 01:21:04 86° NNW 01:24:07 10° NE
Cosmos 2227 Rocket 2.7 01:19:14 10° NNW 01:24:52 59° ENE 01:30:27 10° SE
Cosmos 1356 Rocket 3.6 01:20:54 10° NNW 01:24:57 55° W 01:25:49 45° SW
Cosmos 1763 Rocket 4.3 01:23:45 23° SSE 01:26:29 43° ESE 01:31:17 10° NNE
Cosmos 1697 Rocket 4.0 01:23:11 17° SSE 01:26:42 33° ESE 01:31:42 10° NE
CZ-2D R/B 2.0 01:22:36 10° N 01:27:53 76° WNW 01:30:15 33° SSW
Cosmos 1703 4.3 01:26:48 23° SSE 01:28:44 40° E 01:32:27 10° NNE
ATLAS 2AS CENTAUR R/B 4.1 01:23:16 11° WSW 01:30:14 38° NW 01:37:31 10° NNE
ADEOS II 2.9 01:25:31 10° NNE 01:30:34 45° E 01:34:07 19° SSE
CZ-4C R/B 3.9 01:30:46 39° SW 01:31:29 43° W 01:35:36 10° NNW
STARLINK-1228 2.9 01:32:48 10° WNW 01:36:07 66° SW 01:39:26 10° SE
STARLINK-1234 2.8 01:34:13 10° WNW 01:41:18 - SE 01:37:03 62° WSW
Resurs 1-4 Rocket 2.3 01:32:24 10° N 01:37:37 62° WNW 01:40:11 30° SW
STARLINK-1212 2.7 01:35:35 10° WNW 01:38:41 89° SW 01:41:47 10° SE
USA 81 4.0 01:36:20 30° SSW 01:38:58 74° W 01:44:16 10° N
STARLINK-1105 2.7 01:36:03 10° WNW 01:39:09 88° SSW 01:42:14 10° SE
STARLINK-1209 3.5 01:36:29 10° WNW 01:44:32 - SE 01:38:43 39° W
STARLINK-1247 2.7 01:36:57 10° WNW 01:40:05 87° SW 01:43:12 10° SE
STARLINK-1227 2.7 01:37:25 10° WNW 01:40:31 86° SW 01:43:37 10° SE
STARLINK-52 3.7 01:39:41 32° W 01:40:44 47° NNW 01:43:52 10° NE
STARLINK-1226 2.7 01:38:17 10° WNW 01:41:24 85° SSW 01:44:30 10° SE
Cosmos 1758 Rocket 3.5 01:39:23 30° S 01:41:27 79° E 01:45:50 10° N
STARLINK-1215 2.7 01:39:13 10° WNW 01:42:21 83° SSW 01:45:27 10° SE
ARIANE 5 R/B 3.7 01:37:59 10° NNE 01:42:38 35° E 01:46:55 12° SSE
STARLINK-1217 2.7 01:40:58 10° WNW 01:44:05 80° SW 01:47:12 10° SE
H-2A R/B 4.3 01:40:45 10° ESE 01:44:16 25° ENE 01:47:53 10° N
STARLINK-1208 4.4 01:40:14 10° NW 01:44:19 54° NNE 01:48:22 10° ESE
STARLINK-1229 2.7 01:41:53 10° WNW 01:45:01 78° SW 01:48:08 10° SE
NPP 3.8 01:39:43 10° N 01:45:03 63° WNW 01:47:57 27° SW
STARLINK-1270 2.7 01:42:46 10° WNW 01:45:53 77° SW 01:49:00 10° SE
STARLINK-1189 2.7 01:44:37 10° WNW 01:47:43 74° SW 01:50:49 10° SE
STARLINK-1188 2.7 01:45:29 10° WNW 01:48:36 73° SW 01:51:43 10° SE
STARLINK-1235 2.8 01:46:12 10° WNW 01:49:15 54° SW 01:52:17 10° SE
STARLINK-1271 4.3 01:45:14 10° NW 01:49:19 57° NNE 01:53:25 10° ESE
STARLINK-1187 2.7 01:46:36 10° WNW 01:49:41 61° SW 01:52:44 10° SE
Meteor 1-21 Rocket 4.2 01:46:49 27° SSW 01:49:58 71° WNW 01:55:39 10° N
Cosmos 1898 Rocket 3.6 01:44:44 10° NNW 01:50:06 81° ENE 01:55:25 10° SSE
STARLINK-1191 2.7 01:47:58 10° WNW 01:51:04 68° SW 01:54:07 10° SE
Lacrosse 4 Rocket 3.6 01:47:50 10° N 01:51:39 29° NE 01:55:22 10° ESE
Cosmos 1656 3.7 01:48:20 26° SSW 01:51:40 88° WNW 01:57:20 10° NNE
STARLINK-1221 2.7 01:48:50 10° WNW 01:51:56 67° SW 01:55:00 10° SE
STARLINK-1222 2.7 01:49:44 10° WNW 01:52:49 66° SW 01:55:53 10° SE
CZ-4C R/B 2.6 01:50:43 22° S 01:53:39 47° ESE 01:59:09 10° NE
STARLINK-1214 2.7 01:50:39 10° WNW 01:53:43 64° SW 01:56:47 10° SE
STARLINK-1154 4.1 01:50:12 10° NW 01:54:19 62° NNE 01:58:25 10° ESE
Cosmos 2084 4.1 01:52:18 24° WSW 01:54:39 49° NW 01:59:01 10° NNE
Cosmos 468 Rocket 3.9 01:52:22 26° SSW 01:55:20 88° WNW 02:00:30 10° NNE
SJ 16-02 1.2 01:51:09 10° NNW 01:55:36 76° WSW 01:59:17 15° S
Cosmos 2285 Rocket 4.4 01:49:14 10° NNW 01:55:37 65° ENE 02:01:53 10° SSE
IDEFIX/ARIANE 42P 4.4 01:51:35 10° NE 01:55:56 25° E 02:00:16 10° SSE
Cosmos 1953 Rocket 3.9 01:54:38 19° S 01:57:47 65° E 02:02:12 10° NNE
STARLINK-1197 4.0 01:55:10 10° NW 01:59:18 66° NNE 02:03:25 10° ESE
Cosmos 2369 4.1 01:55:55 18° S 01:59:58 57° ESE 02:05:30 10° NNE
Cosmos 1937 Rocket 3.7 01:55:07 10° NNW 02:00:22 72° ENE 02:05:37 10° SSE
NOSS 7 (H) 4.4 01:59:33 33° SSW 02:00:46 63° SE 02:03:43 10° NE
Meteor 2-10 Rocket 3.7 01:57:17 10° NNW 02:02:30 56° W 02:06:01 19° SSW
STARLINK-1198 3.9 02:00:07 10° NW 02:04:16 71° NNE 02:08:24 10° ESE
Cosmos 1709 Rocket 4.2 02:01:48 22° SSW 02:05:40 54° WNW 02:11:41 10° N
STARLINK-1199 3.8 02:05:08 10° NW 02:09:17 76° NNE 02:13:25 10° ESE
STARLINK-1210 3.7 02:10:05 10° NW 02:14:15 82° NNE 02:18:24 10° ESE
STARLINK-1320 3.1 02:14:52 25° WSW 02:16:30 63° NNW 02:19:36 10° NE
STARLINK-1322 3.1 02:15:11 24° WSW 02:16:50 63° NNW 02:19:57 10° NE
STARLINK-1324 3.1 02:15:32 24° WSW 02:17:12 63° NNW 02:20:18 10° NE
STARLINK-1294 3.1 02:15:47 24° WSW 02:17:29 62° NNW 02:20:36 10° NE
Cosmos 2219 3.7 02:12:24 10° NW 02:17:35 38° WSW 02:22:15 12° S
STARLINK-1261 3.1 02:16:10 24° WSW 02:17:51 62° NNW 02:20:57 10° NE
STARLINK-1325 3.1 02:16:30 23° WSW 02:18:13 61° NNW 02:21:18 10° NE
STARLINK-1333 3.2 02:16:48 23° WSW 02:18:31 61° NNW 02:21:37 10° NE
STARLINK-1334 3.2 02:17:07 23° WSW 02:18:52 61° NNW 02:21:57 10° NE
Cosmos 1980 Rocket 3.0 02:13:41 10° S 02:18:53 46° ESE 02:24:15 10° NE
STARLINK-1326 3.2 02:17:28 23° WSW 02:19:12 60° NNW 02:22:19 10° NE
STARLINK-1219 3.6 02:15:04 10° NW 02:19:13 88° NNE 02:23:22 10° SE
STARLINK-1323 3.2 02:17:47 22° WSW 02:19:32 60° NNW 02:22:38 10° NE
STARLINK-1338 3.3 02:17:39 22° WSW 02:19:45 70° NNW 02:23:14 10° NE
STARLINK-1349 3.2 02:18:06 22° WSW 02:19:53 59° NNW 02:22:58 10° NE
STARLINK-1336 3.2 02:18:28 22° WSW 02:20:15 59° NNW 02:23:20 10° NE
STARLINK-1331 3.2 02:18:45 22° WSW 02:20:33 59° NNW 02:23:39 10° NE
STARLINK-1344 3.2 02:19:05 22° WSW 02:20:53 58° NNW 02:23:59 10° NE
Cosmos 858 Rocket 4.4 02:15:45 10° NNW 02:21:02 76° WSW 02:26:18 10° SSE
STARLINK-1343 3.2 02:19:25 21° WSW 02:21:14 58° NNW 02:24:19 10° NE
STARLINK-1346 3.3 02:19:43 21° WSW 02:21:36 58° NNW 02:24:43 10° NE
Cosmos 1328 4.1 02:19:18 21° SW 02:21:41 50° WNW 02:25:35 10° N
STARLINK-1328 3.3 02:20:05 21° WSW 02:21:56 57° NNW 02:25:01 10° NE
STARLINK-1354 3.3 02:20:22 21° WSW 02:22:14 57° NNW 02:25:19 10° NE
STARLINK-1347 3.3 02:20:44 21° WSW 02:22:36 56° NNW 02:25:42 10° NE
STARLINK-1357 3.3 02:21:02 21° WSW 02:22:55 56° NNW 02:26:00 10° NE
CRYOSAT 2 4.4 02:18:21 10° N 02:23:13 64° W 02:27:17 15° SSW
STARLINK-1335 3.3 02:21:22 20° WSW 02:23:16 56° NNW 02:26:21 10° NE
STARLINK-1327 3.3 02:21:41 20° WSW 02:23:36 55° NNW 02:26:41 10° NE
STARLINK-1371 3.4 02:21:30 20° WSW 02:23:47 65° NNW 02:27:17 10° NE
ERS-2 2.2 02:20:08 10° SSE 02:23:47 83° ENE 02:27:28 10° NNW
STARLINK-1340 3.3 02:22:01 20° WSW 02:23:56 55° NNW 02:27:02 10° NE
STARLINK-1211 3.5 02:20:02 10° WNW 02:24:11 86° SW 02:28:20 10° SE
STARLINK-1356 3.3 02:22:21 20° WSW 02:24:18 55° NNW 02:27:23 10° NE
STARLINK-1345 3.3 02:22:41 20° WSW 02:24:38 54° NNW 02:27:43 10° NE
STARLINK-1355 3.4 02:22:59 19° WSW 02:24:58 54° NNW 02:28:03 10° NE
STARLINK-1321 3.4 02:23:18 19° WSW 02:25:17 54° NNW 02:28:21 10° NE
STARLINK-1358 3.4 02:23:39 19° WSW 02:25:39 53° NNW 02:28:43 10° NE
STARLINK-1341 3.4 02:23:29 19° WSW 02:25:50 63° NNW 02:29:19 10° NE
STARLINK-1332 3.4 02:23:57 19° WSW 02:25:58 53° NNW 02:29:02 10° NE
STARLINK-1348 3.4 02:24:18 19° WSW 02:26:20 53° NNW 02:29:24 10° NE
STARLINK-1330 3.4 02:24:36 19° WSW 02:26:39 52° NNW 02:29:44 10° NE
STARLINK-1363 3.4 02:24:56 18° WSW 02:26:59 52° NNW 02:30:03 10° NE
STARLINK-1337 3.4 02:25:15 18° WSW 02:27:19 52° NNW 02:30:24 10° NE
STARLINK-1342 3.4 02:25:35 18° WSW 02:27:40 51° NNW 02:30:44 10° NE
STARLINK-1374 3.5 02:25:26 18° WSW 02:27:53 61° NNW 02:31:23 10° NE
STARLINK-1364 3.4 02:25:55 18° WSW 02:28:01 51° NNW 02:31:04 10° NE
STARLINK-1376 3.5 02:26:15 18° W 02:28:22 51° NNW 02:31:26 10° NE
STARLINK-1360 3.5 02:26:30 18° W 02:28:38 50° NNW 02:31:42 10° NE
IRS-1C 4.2 02:23:30 10° N 02:28:49 68° WNW 02:33:25 14° SSW
CSL-04 DEB 4.5 02:24:49 10° S 02:29:00 69° WSW 02:33:20 10° NNW
STARLINK-1361 3.5 02:26:56 17° W 02:29:04 50° NNW 02:32:07 10° NE
STARLINK-1245 3.5 02:25:02 10° WNW 02:29:11 80° SW 02:33:19 10° SE
STARLINK-1367 3.5 02:27:10 17° W 02:29:21 50° NNW 02:32:26 10° NE
STARLINK-1366 3.5 02:27:33 17° W 02:29:43 49° NNW 02:32:46 10° NE
STARLINK-1339 3.5 02:27:27 17° WSW 02:29:58 59° NNW 02:33:27 10° NE
SL-4 R/B 3.7 02:26:28 10° WNW 02:30:55 36° N 02:35:11 10° ENE
STARLINK-1377 3.6 02:29:28 16° WSW 02:32:04 57° NNW 02:35:33 10° NE
Cosmos 2297 Rocket 2.8 02:28:01 10° NW 02:33:07 36° WSW 02:38:11 10° S
STARLINK-1353 3.6 02:31:17 15° WSW 02:33:57 55° NNW 02:37:22 10° NE
STARLINK-1233 3.5 02:30:01 10° WNW 02:34:09 74° SW 02:38:16 10° SE
STARLINK-1375 3.7 02:33:04 15° WSW 02:35:49 53° NNW 02:39:14 10° NE
Cosmos 2082 3.7 02:31:22 10° NNW 02:36:59 66° WSW 02:42:32 10° SSE
Cosmos 540 Rocket 3.5 02:32:22 13° SSW 02:37:01 90° W 02:42:12 10° NNE
ATLAS CENTAUR R/B 4.1 02:37:28 10° NW 02:37:47 10° NNW 02:38:06 10° NNW
STARLINK-1350 3.7 02:35:22 14° WSW 02:38:12 51° NNW 02:41:38 10° NE
STARLINK-1204 3.5 02:35:01 10° WNW 02:39:08 68° SW 02:43:14 10° SE
STARLINK-1352 3.8 02:37:40 13° WSW 02:40:38 50° NNW 02:44:05 10° NE
Landsat 5 4.0 02:36:11 10° SSE 02:40:39 71° ENE 02:45:11 10° N
Cosmos 2278 3.8 02:36:08 12° SSW 02:41:29 84° ESE 02:47:11 10° NNE
Cosmos 1455 3.9 02:40:07 10° NW 02:42:38 17° W 02:44:16 13° WSW
STARLINK-1368 3.9 02:39:45 12° WSW 02:42:50 48° NNW 02:46:16 10° NE
CZ-2D R/B 3.4 02:39:03 10° NNE 02:43:11 87° WNW 02:47:24 10° SSW
Meteor 1-11 4.3 02:38:11 11° SSW 02:43:35 65° WNW 02:49:10 10° N
Meteor 1-28 Rocket 3.2 02:39:54 10° S 02:43:38 59° W 02:47:23 10° NNW
STARLINK-1238 3.6 02:39:58 10° WNW 02:44:04 62° SW 02:48:09 10° SE
SL-16 R/B 4.0 02:41:07 12° WSW 02:44:07 17° W 02:48:01 10° NW
USA 234 3.8 02:38:11 10° ENE 02:44:31 50° SE 02:50:49 10° SSW
STARLINK-1369 3.9 02:41:37 12° W 02:44:44 46° NNW 02:48:08 10° NE
Cosmos 2074 Rocket 4.1 02:40:42 10° SSW 02:46:57 67° W 02:53:15 10° N
STARLINK-1372 4.0 02:43:58 11° W 02:47:13 45° NNW 02:50:39 10° NE
ATLAS CENTAUR R/B 3.1 02:44:02 10° WNW 02:47:33 37° SW 02:55:24 10° SSE
Cosmos 2263 Rocket 3.7 02:43:38 10° NNW 02:48:56 40° ENE 02:54:10 10° SE
STARLINK-1201 3.6 02:44:59 10° WNW 02:49:03 57° SW 02:53:06 10° SE
Cosmos 841 Rocket 3.6 02:44:27 12° SSW 02:49:21 66° WNW 02:54:35 10° NNE
STARLINK-1378 4.1 02:46:05 10° W 02:49:28 44° NNW 02:52:52 10° NE
Cosmos 2322 Rocket 4.5 02:45:46 10° SE 02:49:48 20° E 02:53:49 10° NE
STARLINK-1329 4.1 02:46:35 10° W 02:49:59 44° NNW 02:53:24 10° NE
Cosmos 372 Rocket 4.0 02:45:33 10° NNW 02:50:42 88° ENE 02:55:51 10° SSE
STARLINK-1365 4.1 02:47:21 10° W 02:50:43 42° NNW 02:54:06 10° NE
STARLINK-1379 4.1 02:48:18 10° W 02:51:41 42° NNW 02:55:05 10° NE
STARLINK-1362 4.1 02:48:53 10° W 02:52:17 42° NNW 02:55:41 10° NE
Cosmos 1892 4.1 02:49:27 10° SSE 02:53:01 39° E 02:56:36 10° NNE
COBE Rocket 4.1 02:48:54 10° S 02:53:40 52° W 02:58:36 10° NNW
STARLINK-1206 3.7 02:49:58 10° WNW 02:54:01 52° SW 02:58:02 10° SE
Cosmos-2242 4.4 02:50:59 10° NW 02:54:14 22° W 02:57:20 11° SW
STARLINK-1373 4.2 02:51:12 10° W 02:54:35 41° NNW 02:57:59 10° NE
Cosmos 1869 3.6 02:51:10 10° N 02:55:05 68° E 02:58:55 10° SSE
Cosmos 1400 Rocket 3.2 02:51:41 10° NNW 02:55:38 45° W 02:59:34 10° SSW
Cosmos 2221 2.6 02:52:08 10° N 02:56:28 84° E 03:00:49 10° S
STARLINK-1390 4.2 02:53:18 10° W 02:56:39 40° NNW 03:00:01 10° NE
Cosmos 2184 Rocket 4.2 02:52:28 10° SSW 02:58:31 56° WNW 03:04:35 10° N
STARLINK-1205 3.8 02:54:59 10° WNW 02:58:58 47° SW 03:02:57 10° SSE
SL-08 R/B 4.1 02:55:04 10° SSW 02:59:15 31° W 03:03:24 10° NNW
CZ-4C R/B 3.1 02:56:04 10° S 02:59:35 60° W 03:03:12 10° NNW
STARLINK-1218 3.9 02:59:58 10° WNW 03:03:55 43° SW 03:07:51 10° SSE
STARLINK-1202 4.4 03:02:12 10° NW 03:06:17 56° NNE 03:10:22 10° ESE
CZ-2D R/B 4.2 03:05:11 10° NW 03:07:01 12° NW 03:08:52 10° WNW
Cosmos 2227 Rocket 3.4 03:04:14 10° NW 03:08:25 22° W 03:12:36 10° SSW
STARLINK-1254 4.0 03:05:00 10° WNW 03:08:53 40° SW 03:12:45 10° SSE
ADEOS II 3.4 03:05:44 10° N 03:10:00 26° WNW 03:14:16 10° WSW
Cosmos 1697 Rocket 3.4 03:05:14 10° SW 03:10:32 40° WNW 03:15:54 10° NNE
Cosmos 2150 Rocket 4.0 03:07:31 10° NNW 03:12:44 79° WSW 03:17:51 10° SSE
STARLINK-1231 4.2 03:10:03 10° WNW 03:13:51 36° SW 03:17:40 10° SSE
Cosmos 1315 Rocket 2.7 03:11:49 10° NNW 03:15:44 75° W 03:19:37 10° S
STARLINK-1246 4.2 03:12:08 10° NW 03:16:16 64° NNE 03:20:22 10° ESE
SL-16 R/B 3.5 03:11:04 10° S 03:16:18 40° ESE 03:21:35 10° NE
MSX 3.9 03:12:19 10° NNE 03:18:07 89° ESE 03:23:52 10° SSW
